Christmas Island, Christmas Island

6:59 AM +07 on November 21, 2017 (GMT +0700)
Christmas Island

Weather History for YPXM - September, 2013

Change the Weather History Date:

Thursday, September 19, 2013

  Actual Average Record
Temperature  
Mean Temperature 76 °F -  
Max Temperature 80 °F 76 °F 84 °F (2006)
Min Temperature 72 °F 71 °F 69 °F (2003)
Cooling Degree Days 11    
Growing Degree Days 26 (Base 50)    
Moisture  
Dew Point 70 °F    
Average Humidity 81    
Maximum Humidity 88    
Minimum Humidity 70    
Precipitation  
Precipitation 0.00 in - - ()
Sea Level Pressure  
Sea Level Pressure 29.90 in    
Wind  
Wind Speed 12 mph ()    
Max Wind Speed 17 mph    
Max Gust Speed -    
Visibility 6.2 miles    
Events      
Averages and records for this station are not official NWS values.
T = Trace of Precipitation, MM = Missing Value Source: Averaged Metar Reports

Daily Weather History Graph

Daily Weather History Graph

Search for Another Location

Airport or City:

Trip Planner

Search our weather history database for the weather conditions in past years. The results will help you decide how hot, cold, wet, or windy it might be!

Date:

Astronomy

Sep. 19, 2013 Rise Set
Actual Time 5:48 AM +07 5:53 PM +07
Civil Twilight 5:27 AM +07 6:14 PM +07
Nautical Twilight 5:03 AM +07 6:38 PM +07
Astronomical Twilight 4:39 AM +07 7:03 PM +07
Moon 5:45 PM +07 (9/19) 5:18 AM +07 (9/19)
Length of Visible Light 12h 46m
Length of Day
12h 04m
Full, 100% of the Moon is Illuminated
Sep 19
Full
Sep 19
Full
Sep 27
Last Quarter
Oct 5
New
Oct 12
First Quarter

Hourly Weather History & Observations

Time (+07) Temp. Dew Point Humidity Pressure Visibility Wind Dir Wind Speed Gust Speed Precip Events Conditions
12:00 AM 74 °F 69 °F 78% 29.89 in - ESE 12.7 mph - -   Overcast
12:00 AM 73.4 °F 68.0 °F 83% 29.92 in - ESE 12.7 mph - N/A   Overcast
12:08 AM 73.4 °F 68.0 °F 83% 29.92 in - ESE 12.7 mph - N/A   Overcast
12:11 AM 73.4 °F 68.0 °F 83% 29.92 in - ESE 12.7 mph - N/A   Overcast
12:47 AM 73.4 °F 69.8 °F 88% 29.92 in - ESE 12.7 mph - N/A   Overcast
1:00 AM 74 °F 69 °F 80% 29.87 in - ESE 13.8 mph - -  
1:00 AM 73.4 °F 69.8 °F 88% 29.89 in - ESE 13.8 mph - N/A   Overcast
2:00 AM 73.4 °F 69.8 °F 88% 29.89 in - ESE 12.7 mph - N/A   Overcast
2:53 AM 73.4 °F 69.8 °F 88% 29.89 in - ESE 12.7 mph - N/A   Overcast
3:00 AM 74 °F 69 °F 81% 29.85 in - East 12.7 mph - -   Overcast
3:00 AM 73.4 °F 69.8 °F 88% 29.89 in - East 12.7 mph - N/A   Overcast
4:00 AM 74 °F 69 °F 78% 29.85 in - ESE 12.7 mph - -  
4:00 AM 73.4 °F 68.0 °F 83% 29.89 in - ESE 12.7 mph - N/A   Overcast
5:00 AM 73.4 °F 68.0 °F 83% 29.89 in - ESE 11.5 mph - N/A   Overcast
6:00 AM 74 °F 68 °F 78% 29.88 in - ESE 12.7 mph - -   Overcast
6:00 AM 73.4 °F 68.0 °F 83% 29.92 in - ESE 12.7 mph - N/A   Overcast
7:00 AM 75 °F 69 °F 75% 29.89 in - East 10.4 mph - -  
7:00 AM 75.2 °F 68.0 °F 78% 29.92 in - East 10.4 mph - N/A   Overcast
7:12 AM 75.2 °F 69.8 °F 83% 29.92 in - ESE 11.5 mph - N/A   Mostly Cloudy
8:00 AM 77.0 °F 69.8 °F 78% 29.92 in - ESE 15.0 mph - N/A   Mostly Cloudy
9:00 AM 77 °F 70 °F 74% 29.91 in - ESE 16.1 mph - -  
9:00 AM 77.0 °F 69.8 °F 78% 29.95 in 6.2 mi ESE 16.1 mph - N/A   Mostly Cloudy
10:00 AM 78 °F 71 °F 73% 29.90 in - ESE 15.0 mph - -  
10:00 AM 78.8 °F 71.6 °F 78% 29.92 in 6.2 mi ESE 15.0 mph - N/A   Overcast
11:00 AM 78.8 °F 69.8 °F 74% 29.92 in 6.2 mi East 15.0 mph - N/A   Scattered Clouds
11:07 AM 78.8 °F 71.6 °F 78% 29.92 in 6.2 mi East 16.1 mph - N/A   Scattered Clouds
11:24 AM 78.8 °F 71.6 °F 78% 29.92 in 6.2 mi East 15.0 mph - N/A   Mostly Cloudy
12:00 PM 79 °F 71 °F 70% 29.86 in - ESE 17.3 mph - -  
12:00 PM 78.8 °F 71.6 °F 78% 29.89 in 6.2 mi ESE 17.3 mph - N/A   Mostly Cloudy
1:00 PM 78 °F 72 °F 75% 29.84 in - ESE 16.1 mph - -  
1:00 PM 77.0 °F 71.6 °F 83% 29.86 in 6.2 mi ESE 16.1 mph - N/A   Mostly Cloudy
2:00 PM 77.0 °F 71.6 °F 83% 29.86 in 6.2 mi ESE 12.7 mph - N/A   Mostly Cloudy
3:00 PM 78 °F 71 °F 75% 29.82 in - SSE 10.4 mph - -   Overcast
3:00 PM 77.0 °F 71.6 °F 83% 29.86 in 6.2 mi SSE 10.4 mph - N/A   Overcast
3:52 PM 77.0 °F 69.8 °F 78% 29.86 in - SE 12.7 mph - N/A   Overcast
3:56 PM 75.2 °F 69.8 °F 83% 29.86 in - SE 11.5 mph - N/A   Overcast
4:00 PM 76 °F 70 °F 77% 29.82 in - SE 11.5 mph - -  
4:00 PM 75.2 °F 69.8 °F 83% 29.86 in - SE 11.5 mph - N/A   Overcast
5:00 PM 75.2 °F 69.8 °F 83% 29.86 in - ESE 12.7 mph - N/A   Mostly Cloudy
6:00 PM 74 °F 70 °F 82% 29.85 in - ESE 11.5 mph - -   Overcast
6:00 PM 75.2 °F 69.8 °F 83% 29.89 in - ESE 11.5 mph - N/A   Overcast
6:58 PM 75.2 °F 68.0 °F 78% 29.92 in - ESE 11.5 mph - N/A   Overcast
7:00 PM 74 °F 69 °F 80% 29.88 in - ESE 11.5 mph - -  
7:04 PM 75.2 °F 69.8 °F 83% 29.92 in - ESE 12.7 mph - N/A   Overcast
8:00 PM 73.4 °F 69.8 °F 88% 29.92 in - SE 11.5 mph - N/A   Overcast
9:00 PM 74 °F 68 °F 78% 29.92 in - SE 10.4 mph - -  
9:00 PM 73.4 °F 68.0 °F 83% 29.95 in - SE 10.4 mph - N/A   Mostly Cloudy
9:01 PM 73.4 °F 68.0 °F 83% 29.95 in - SE 10.4 mph - N/A   Mostly Cloudy
10:00 PM 74 °F 69 °F 81% 29.92 in - ESE 12.7 mph - -  
10:00 PM 75.2 °F 69.8 °F 83% 29.95 in - ESE 12.7 mph - N/A   Overcast
10:59 PM 75.2 °F 69.8 °F 83% 29.95 in - ESE 12.7 mph - N/A   Overcast
11:00 PM 75.2 °F 69.8 °F 83% 29.95 in - ESE 12.7 mph - N/A   Overcast
11:25 PM 75.2 °F 68.0 °F 78% 29.95 in - ESE 12.7 mph - N/A   Overcast